Time,TemperatureF,DewpointF,PressureIn,WindDirection,WindDirectionDegrees,WindSpeedMPH,WindSpeedGustMPH,Humidity,HourlyPrecipIn,Conditions,Clouds,dailyrainin,SoftwareType,DateUTC
2013-11-25 00:01:00,23.7,-9.6,29.96,North,0,0.0,0.0,22,0.00,,---,0.00,VWS V13.01,2013-11-25 05:01:00,
2013-11-25 00:06:00,23.5,-9.7,29.96,North,0,0.0,0.0,22,0.00,,---,0.00,VWS V13.01,2013-11-25 05:06:00,
2013-11-25 00:11:00,23.5,-9.7,29.96,North,0,0.0,0.0,22,0.00,,---,0.00,VWS V13.01,2013-11-25 05:11:00,
2013-11-25 00:16:00,23.5,-9.7,29.96,North,0,0.0,0.0,22,0.00,,---,0.00,VWS V13.01,2013-11-25 05:16:00,
2013-11-25 00:21:00,23.5,-9.7,29.96,North,0,0.0,0.0,22,0.00,,---,0.00,VWS V13.01,2013-11-25 05:21:00,
2013-11-25 00:26:00,23.5,-9.7,29.96,North,0,0.0,0.0,22,0.00,,---,0.00,VWS V13.01,2013-11-25 05:26:00,
2013-11-25 00:31:00,23.5,-9.7,29.96,North,0,0.0,0.0,22,0.00,,---,0.00,VWS V13.01,2013-11-25 05:31:00,
2013-11-25 00:36:00,23.5,-9.7,29.96,North,0,0.0,0.0,22,0.00,,---,0.00,VWS V13.01,2013-11-25 05:36:00,
2013-11-25 00:41:00,23.5,-9.7,29.96,North,0,0.0,0.0,22,0.00,,---,0.00,VWS V13.01,2013-11-25 05:41:00,
2013-11-25 00:46:00,23.5,-9.7,29.96,North,0,0.0,0.0,22,0.00,,---,0.00,VWS V13.01,2013-11-25 05:46:00,
2013-11-25 00:51:00,23.5,-9.7,29.96,North,0,0.0,0.0,22,0.00,,---,0.00,VWS V13.01,2013-11-25 05:51:00,
2013-11-25 00:56:00,23.5,-9.7,29.96,North,0,0.0,0.0,22,0.00,,---,0.00,VWS V13.01,2013-11-25 05:56:00,
2013-11-25 01:01:00,23.5,-9.7,29.96,North,0,0.0,0.0,22,0.00,,---,0.00,VWS V13.01,2013-11-25 06:01:00,
2013-11-25 01:06:00,23.4,-9.9,29.96,North,0,0.0,0.0,22,0.00,,---,0.00,VWS V13.01,2013-11-25 06:06:00,
2013-11-25 01:11:00,23.2,-10.0,29.96,North,0,0.0,0.0,22,0.00,,---,0.00,VWS V13.01,2013-11-25 06:11:00,
2013-11-25 01:16:00,23.2,-10.0,29.96,North,0,0.0,0.0,22,0.00,,---,0.00,VWS V13.01,2013-11-25 06:16:00,
2013-11-25 01:21:00,23.2,-10.0,29.96,North,0,0.0,0.0,22,0.00,,---,0.00,VWS V13.01,2013-11-25 06:21:00,
2013-11-25 01:26:00,23.2,-10.0,29.96,North,0,0.0,0.0,22,0.00,,---,0.00,VWS V13.01,2013-11-25 06:26:00,
2013-11-25 01:31:00,23.0,-10.2,29.96,North,0,0.0,0.0,22,0.00,,---,0.00,VWS V13.01,2013-11-25 06:31:00,
2013-11-25 01:37:00,22.8,-10.3,29.96,North,0,0.0,0.0,22,0.00,,---,0.00,VWS V13.01,2013-11-25 06:37:00,
2013-11-25 01:42:00,22.8,-10.3,29.96,North,0,0.0,0.0,22,0.00,,---,0.00,VWS V13.01,2013-11-25 06:42:00,
2013-11-25 01:47:00,22.8,-10.3,29.96,North,0,0.0,0.0,22,0.00,,---,0.00,VWS V13.01,2013-11-25 06:47:00,
2013-11-25 01:52:00,22.8,-10.3,29.96,North,0,0.0,0.0,22,0.00,,---,0.00,VWS V13.01,2013-11-25 06:52:00,
2013-11-25 01:57:00,22.6,-10.5,29.96,North,0,0.0,0.0,22,0.00,,---,0.00,VWS V13.01,2013-11-25 06:57:00,
2013-11-25 02:02:00,22.6,-10.5,29.96,North,0,0.0,0.0,22,0.00,,---,0.00,VWS V13.01,2013-11-25 07:02:00,
2013-11-25 02:07:00,22.6,-10.5,29.96,North,0,0.0,0.0,22,0.00,,---,0.00,VWS V13.01,2013-11-25 07:07:00,
2013-11-25 02:12:00,22.6,-10.5,29.96,North,0,0.0,0.0,22,0.00,,---,0.00,VWS V13.01,2013-11-25 07:12:00,
2013-11-25 02:17:00,22.6,-10.5,29.96,North,0,0.0,0.0,22,0.00,,---,0.00,VWS V13.01,2013-11-25 07:17:00,
2013-11-25 02:22:00,22.3,-10.8,29.96,North,0,0.0,0.0,22,0.00,,---,0.00,VWS V13.01,2013-11-25 07:22:00,
2013-11-25 02:27:00,22.1,-10.9,29.96,North,0,0.0,0.0,22,0.00,,---,0.00,VWS V13.01,2013-11-25 07:27:00,
2013-11-25 02:32:00,21.9,-11.1,29.96,North,0,0.0,0.0,22,0.00,,---,0.00,VWS V13.01,2013-11-25 07:32:00,
2013-11-25 02:37:00,21.9,-11.1,29.96,North,0,0.0,0.0,22,0.00,,---,0.00,VWS V13.01,2013-11-25 07:37:00,
2013-11-25 02:42:00,22.1,-8.3,29.96,North,0,0.0,0.0,25,0.00,,---,0.00,VWS V13.01,2013-11-25 07:42:00,
2013-11-25 02:47:00,22.1,-8.3,29.96,North,0,0.0,0.0,25,0.00,,---,0.00,VWS V13.01,2013-11-25 07:47:00,
2013-11-25 02:52:00,22.1,-8.3,29.96,North,0,0.0,0.0,25,0.00,,---,0.00,VWS V13.01,2013-11-25 07:52:00,
2013-11-25 02:57:00,22.1,-8.3,29.96,North,0,0.0,0.0,25,0.00,,---,0.00,VWS V13.01,2013-11-25 07:57:00,
2013-11-25 03:02:00,22.1,-10.9,29.96,North,0,0.0,0.0,22,0.00,,---,0.00,VWS V13.01,2013-11-25 08:02:00,
2013-11-25 03:07:00,21.9,-11.1,29.96,North,0,0.0,0.0,22,0.00,,---,0.00,VWS V13.01,2013-11-25 08:07:00,
2013-11-25 03:12:00,21.9,-11.1,29.96,North,0,0.0,0.0,22,0.00,,---,0.00,VWS V13.01,2013-11-25 08:12:00,
2013-11-25 03:17:00,21.9,-11.1,29.96,North,0,0.0,0.0,22,0.00,,---,0.00,VWS V13.01,2013-11-25 08:17:00,
2013-11-25 03:22:00,21.9,-11.1,29.96,North,0,0.0,0.0,22,0.00,,---,0.00,VWS V13.01,2013-11-25 08:22:00,
2013-11-25 03:27:00,21.9,-11.1,29.96,North,0,0.0,0.0,22,0.00,,---,0.00,VWS V13.01,2013-11-25 08:27:00,
2013-11-25 03:32:00,21.9,-11.1,29.96,North,0,0.0,0.0,22,0.00,,---,0.00,VWS V13.01,2013-11-25 08:32:00,
2013-11-25 03:37:00,21.9,-11.1,29.96,North,0,0.0,0.0,22,0.00,,---,0.00,VWS V13.01,2013-11-25 08:37:00,
2013-11-25 03:42:00,21.9,-11.1,29.96,North,0,0.0,0.0,22,0.00,,---,0.00,VWS V13.01,2013-11-25 08:42:00,
2013-11-25 03:47:00,21.9,-11.1,29.96,North,0,0.0,0.0,22,0.00,,---,0.00,VWS V13.01,2013-11-25 08:47:00,
2013-11-25 03:52:00,21.4,-9.0,29.96,North,0,0.0,0.0,25,0.00,,---,0.00,VWS V13.01,2013-11-25 08:52:00,
2013-11-25 03:57:00,21.4,-9.0,29.96,North,0,0.0,0.0,25,0.00,,---,0.00,VWS V13.01,2013-11-25 08:57:00,
2013-11-25 04:02:00,21.2,-9.1,29.96,North,0,0.0,0.0,25,0.00,,---,0.00,VWS V13.01,2013-11-25 09:02:00,
2013-11-25 04:07:00,21.2,-9.1,29.96,North,0,0.0,0.0,25,0.00,,---,0.00,VWS V13.01,2013-11-25 09:07:00,
2013-11-25 04:12:00,21.2,-9.1,29.96,North,0,0.0,0.0,25,0.00,,---,0.00,VWS V13.01,2013-11-25 09:12:00,
2013-11-25 04:17:00,21.0,-9.3,29.96,North,0,0.0,0.0,25,0.00,,---,0.00,VWS V13.01,2013-11-25 09:17:00,
2013-11-25 04:22:00,21.0,-9.3,29.96,North,0,0.0,0.0,25,0.00,,---,0.00,VWS V13.01,2013-11-25 09:22:00,
2013-11-25 04:27:00,21.2,-9.1,29.96,North,0,0.0,0.0,25,0.00,,---,0.00,VWS V13.01,2013-11-25 09:27:00,
2013-11-25 04:32:00,21.2,-9.1,29.96,North,0,0.0,0.0,25,0.00,,---,0.00,VWS V13.01,2013-11-25 09:32:00,
2013-11-25 04:37:00,21.2,-9.1,29.96,North,0,0.0,0.0,25,0.00,,---,0.00,VWS V13.01,2013-11-25 09:37:00,
2013-11-25 04:42:00,20.8,-9.4,29.96,North,0,0.0,0.0,25,0.00,,---,0.00,VWS V13.01,2013-11-25 09:42:00,
2013-11-25 04:47:00,20.8,-9.4,29.96,North,0,0.0,0.0,25,0.00,,---,0.00,VWS V13.01,2013-11-25 09:47:00,
2013-11-25 04:52:00,20.8,-7.9,29.96,North,0,0.0,0.0,27,0.00,,---,0.00,VWS V13.01,2013-11-25 09:52:00,
2013-11-25 04:57:00,20.7,-8.0,29.96,North,0,0.0,0.0,27,0.00,,---,0.00,VWS V13.01,2013-11-25 09:57:00,
2013-11-25 05:02:00,20.5,-8.2,29.96,North,0,0.0,0.0,27,0.00,,---,0.00,VWS V13.01,2013-11-25 10:02:00,
2013-11-25 05:07:00,20.5,-8.2,29.96,North,0,0.0,0.0,27,0.00,,---,0.00,VWS V13.01,2013-11-25 10:07:00,
2013-11-25 05:12:00,20.5,-8.2,29.96,North,0,0.0,0.0,27,0.00,,---,0.00,VWS V13.01,2013-11-25 10:12:00,
2013-11-25 05:17:00,20.3,-6.2,29.96,North,0,0.0,0.0,30,0.00,,---,0.00,VWS V13.01,2013-11-25 10:17:00,
2013-11-25 05:22:00,20.1,-6.3,29.96,North,0,0.0,0.0,30,0.00,,---,0.00,VWS V13.01,2013-11-25 10:22:00,
2013-11-25 05:27:00,20.1,-6.3,29.96,North,0,0.0,0.0,30,0.00,,---,0.00,VWS V13.01,2013-11-25 10:27:00,
2013-11-25 05:32:00,20.1,-6.3,29.96,North,0,0.0,0.0,30,0.00,,---,0.00,VWS V13.01,2013-11-25 10:32:00,
2013-11-25 05:37:00,20.3,-4.8,29.96,North,0,0.0,0.0,32,0.00,,---,0.00,VWS V13.01,2013-11-25 10:37:00,
2013-11-25 05:42:00,20.3,-4.8,29.96,North,0,0.0,0.0,32,0.00,,---,0.00,VWS V13.01,2013-11-25 10:42:00,
2013-11-25 05:47:00,20.3,-4.8,29.96,North,0,0.0,0.0,32,0.00,,---,0.00,VWS V13.01,2013-11-25 10:47:00,
2013-11-25 05:52:00,20.7,-4.5,29.96,North,0,0.0,0.0,32,0.00,,---,0.00,VWS V13.01,2013-11-25 10:52:00,
2013-11-25 05:57:00,20.8,-4.4,29.96,North,0,0.0,0.0,32,0.00,,---,0.00,VWS V13.01,2013-11-25 10:57:00,
2013-11-25 06:02:00,20.8,-4.4,29.96,North,0,0.0,0.0,32,0.00,,---,0.00,VWS V13.01,2013-11-25 11:02:00,
2013-11-25 06:07:00,20.8,-4.4,29.96,North,0,0.0,0.0,32,0.00,,---,0.00,VWS V13.01,2013-11-25 11:07:00,
2013-11-25 06:12:00,20.7,-3.9,29.96,North,0,0.0,0.0,33,0.00,,---,0.00,VWS V13.01,2013-11-25 11:12:00,
2013-11-25 06:17:00,20.7,-3.9,29.96,North,0,0.0,0.0,33,0.00,,---,0.00,VWS V13.01,2013-11-25 11:17:00,
2013-11-25 06:22:00,20.7,-3.9,29.96,North,0,0.0,0.0,33,0.00,,---,0.00,VWS V13.01,2013-11-25 11:22:00,
2013-11-25 06:27:00,20.1,-4.4,29.96,North,0,0.0,0.0,33,0.00,,---,0.00,VWS V13.01,2013-11-25 11:27:00,
2013-11-25 06:32:00,20.1,-4.4,29.96,North,0,0.0,0.0,33,0.00,,---,0.00,VWS V13.01,2013-11-25 11:32:00,
2013-11-25 06:37:00,20.1,-4.4,29.96,North,0,0.0,0.0,33,0.00,,---,0.00,VWS V13.01,2013-11-25 11:37:00,
2013-11-25 06:42:00,20.1,-4.4,29.96,North,0,0.0,0.0,33,0.00,,---,0.00,VWS V13.01,2013-11-25 11:42:00,
2013-11-25 06:47:00,20.1,-4.4,29.96,North,0,0.0,0.0,33,0.00,,---,0.00,VWS V13.01,2013-11-25 11:47:00,
2013-11-25 06:52:00,19.9,-4.5,29.96,North,0,0.0,0.0,33,0.00,,---,0.00,VWS V13.01,2013-11-25 11:52:00,
2013-11-25 06:57:00,20.1,-4.4,29.96,North,0,0.0,0.0,33,0.00,,---,0.00,VWS V13.01,2013-11-25 11:57:00,
2013-11-25 07:02:00,20.3,-4.2,29.96,North,0,0.0,0.0,33,0.00,,---,0.00,VWS V13.01,2013-11-25 12:02:00,
2013-11-25 07:07:00,20.3,-4.2,29.96,North,0,0.0,0.0,33,0.00,,---,0.00,VWS V13.01,2013-11-25 12:07:00,
2013-11-25 07:12:00,20.7,-3.9,29.96,North,0,0.0,0.0,33,0.00,,---,0.00,VWS V13.01,2013-11-25 12:12:00,
2013-11-25 07:17:00,20.7,-3.9,29.96,North,0,0.0,0.0,33,0.00,,---,0.00,VWS V13.01,2013-11-25 12:17:00,
2013-11-25 07:22:00,20.8,-3.7,29.96,North,0,0.0,0.0,33,0.00,,---,0.00,VWS V13.01,2013-11-25 12:22:00,
2013-11-25 07:27:00,20.8,-3.7,29.96,North,0,0.0,0.0,33,0.00,,---,0.00,VWS V13.01,2013-11-25 12:27:00,
2013-11-25 07:32:00,20.8,-3.7,29.96,North,0,0.0,0.0,33,0.00,,---,0.00,VWS V13.01,2013-11-25 12:32:00,
2013-11-25 07:37:00,21.2,-3.4,29.96,North,0,0.0,0.0,33,0.00,,---,0.00,VWS V13.01,2013-11-25 12:37:00,
2013-11-25 07:42:00,21.6,-3.7,29.96,North,0,0.0,0.0,32,0.00,,---,0.00,VWS V13.01,2013-11-25 12:42:00,
2013-11-25 07:47:00,21.7,-3.6,29.96,North,0,0.0,0.0,32,0.00,,---,0.00,VWS V13.01,2013-11-25 12:47:00,
2013-11-25 07:52:00,21.9,-3.4,29.96,North,0,0.0,0.0,32,0.00,,---,0.00,VWS V13.01,2013-11-25 12:52:00,
2013-11-25 07:57:00,22.1,-3.2,29.96,North,0,0.0,0.0,32,0.00,,---,0.00,VWS V13.01,2013-11-25 12:57:00,
2013-11-25 08:02:00,22.5,-2.9,29.96,North,0,0.0,0.0,32,0.00,,---,0.00,VWS V13.01,2013-11-25 13:02:00,
2013-11-25 08:07:00,22.5,-2.9,29.96,North,0,0.0,0.0,32,0.00,,---,0.00,VWS V13.01,2013-11-25 13:07:00,
2013-11-25 08:12:00,22.8,-2.6,29.96,North,0,0.0,0.0,32,0.00,,---,0.00,VWS V13.01,2013-11-25 13:12:00,
2013-11-25 08:17:00,22.8,-2.6,29.96,North,0,0.0,0.0,32,0.00,,---,0.00,VWS V13.01,2013-11-25 13:17:00,
2013-11-25 08:22:00,23.4,-2.1,29.96,North,0,0.0,0.0,32,0.00,,---,0.00,VWS V13.01,2013-11-25 13:22:00,
2013-11-25 08:27:00,23.5,-2.0,29.96,North,0,0.0,0.0,32,0.00,,---,0.00,VWS V13.01,2013-11-25 13:27:00,
2013-11-25 08:32:00,23.9,-3.7,29.96,North,0,0.0,0.0,29,0.00,,---,0.00,VWS V13.01,2013-11-25 13:32:00,
2013-11-25 08:37:00,23.9,-3.7,29.96,North,0,0.0,0.0,29,0.00,,---,0.00,VWS V13.01,2013-11-25 13:37:00,
2013-11-25 08:42:00,24.4,-1.2,29.96,North,0,0.0,0.0,32,0.00,,---,0.00,VWS V13.01,2013-11-25 13:42:00,
2013-11-25 08:47:00,24.4,-1.2,29.96,North,0,0.0,0.0,32,0.00,,---,0.00,VWS V13.01,2013-11-25 13:47:00,
2013-11-25 08:52:00,25.0,-2.8,29.96,North,0,0.0,0.0,29,0.00,,---,0.00,VWS V13.01,2013-11-25 13:52:00,
2013-11-25 08:57:00,25.2,-2.6,29.96,North,0,0.0,0.0,29,0.00,,---,0.00,VWS V13.01,2013-11-25 13:57:00,
2013-11-25 09:02:00,25.3,-2.5,29.96,North,0,0.0,0.0,29,0.00,,---,0.00,VWS V13.01,2013-11-25 14:02:00,
2013-11-25 09:07:00,25.3,-2.5,29.96,North,0,0.0,0.0,29,0.00,,---,0.00,VWS V13.01,2013-11-25 14:07:00,
2013-11-25 09:12:00,25.7,-2.2,29.96,North,0,0.0,0.0,29,0.00,,---,0.00,VWS V13.01,2013-11-25 14:12:00,
2013-11-25 09:17:00,26.1,-1.8,29.96,North,0,0.0,0.0,29,0.00,,---,0.00,VWS V13.01,2013-11-25 14:17:00,
2013-11-25 09:22:00,26.2,-1.7,29.96,North,0,0.0,0.0,29,0.00,,---,0.00,VWS V13.01,2013-11-25 14:22:00,
2013-11-25 09:27:00,26.2,-1.7,29.96,North,0,0.0,0.0,29,0.00,,---,0.00,VWS V13.01,2013-11-25 14:27:00,
2013-11-25 09:32:00,26.2,-1.7,29.96,North,0,0.0,0.0,29,0.00,,---,0.00,VWS V13.01,2013-11-25 14:32:00,
2013-11-25 09:37:00,27.1,-3.2,29.96,North,0,0.0,0.0,26,0.00,,---,0.00,VWS V13.01,2013-11-25 14:37:00,
2013-11-25 09:42:00,27.1,-3.2,29.96,North,0,0.0,0.0,26,0.00,,---,0.00,VWS V13.01,2013-11-25 14:42:00,
2013-11-25 09:47:00,28.0,-2.4,29.96,North,0,0.0,0.0,26,0.00,,---,0.00,VWS V13.01,2013-11-25 14:47:00,
2013-11-25 09:52:00,28.0,-2.4,29.96,North,0,0.0,0.0,26,0.00,,---,0.00,VWS V13.01,2013-11-25 14:52:00,
2013-11-25 09:57:00,28.0,-2.4,29.96,North,0,0.0,0.0,26,0.00,,---,0.00,VWS V13.01,2013-11-25 14:57:00,
2013-11-25 10:02:00,28.0,-2.4,29.96,North,0,0.0,0.0,26,0.00,,---,0.00,VWS V13.01,2013-11-25 15:02:00,
2013-11-25 10:07:00,28.6,-4.5,29.96,North,0,0.0,0.0,23,0.00,,---,0.00,VWS V13.01,2013-11-25 15:07:00,
2013-11-25 10:13:00,28.6,-4.5,29.96,North,0,0.0,0.0,23,0.00,,---,0.00,VWS V13.01,2013-11-25 15:13:00,
2013-11-25 10:18:00,29.1,-4.1,29.96,North,0,0.0,0.0,23,0.00,,---,0.00,VWS V13.01,2013-11-25 15:18:00,
2013-11-25 10:23:00,29.1,-4.1,29.96,North,0,0.0,0.0,23,0.00,,---,0.00,VWS V13.01,2013-11-25 15:23:00,
2013-11-25 10:28:00,29.5,-3.7,29.96,North,0,0.0,0.0,23,0.00,,---,0.00,VWS V13.01,2013-11-25 15:28:00,
2013-11-25 10:33:00,29.5,-3.7,29.96,North,0,0.0,0.0,23,0.00,,---,0.00,VWS V13.01,2013-11-25 15:33:00,
2013-11-25 10:38:00,29.5,-3.7,29.96,North,0,0.0,0.0,23,0.00,,---,0.00,VWS V13.01,2013-11-25 15:38:00,
2013-11-25 10:43:00,29.5,-3.7,29.96,North,0,0.0,0.0,23,0.00,,---,0.00,VWS V13.01,2013-11-25 15:43:00,
2013-11-25 10:48:00,29.5,-3.7,29.96,North,0,0.0,0.0,23,0.00,,---,0.00,VWS V13.01,2013-11-25 15:48:00,
2013-11-25 10:53:00,30.9,-2.5,29.96,North,0,0.0,0.0,23,0.00,,---,0.00,VWS V13.01,2013-11-25 15:53:00,
2013-11-25 10:58:00,31.1,-5.3,29.96,North,0,0.0,0.0,20,0.00,,---,0.00,VWS V13.01,2013-11-25 15:58:00,
2013-11-25 11:03:00,31.6,-4.8,29.96,North,0,0.0,0.0,20,0.00,,---,0.00,VWS V13.01,2013-11-25 16:03:00,
2013-11-25 11:08:00,31.6,-4.8,29.96,North,0,0.0,0.0,20,0.00,,---,0.00,VWS V13.01,2013-11-25 16:08:00,
2013-11-25 11:13:00,31.6,-4.8,29.96,North,0,0.0,0.0,20,0.00,,---,0.00,VWS V13.01,2013-11-25 16:13:00,
2013-11-25 11:18:00,32.2,-4.4,29.96,North,0,0.0,0.0,20,0.00,,---,0.00,VWS V13.01,2013-11-25 16:18:00,
2013-11-25 11:23:00,32.2,-4.4,29.96,North,0,0.0,0.0,20,0.00,,---,0.00,VWS V13.01,2013-11-25 16:23:00,
2013-11-25 11:28:00,32.2,-4.4,29.96,North,0,0.0,0.0,20,0.00,,---,0.00,VWS V13.01,2013-11-25 16:28:00,
2013-11-25 11:33:00,33.8,-3.0,29.96,North,0,0.0,0.0,20,0.00,,---,0.00,VWS V13.01,2013-11-25 16:33:00,
2013-11-25 11:38:00,33.8,-3.0,29.96,North,0,0.0,0.0,20,0.00,,---,0.00,VWS V13.01,2013-11-25 16:38:00,
2013-11-25 11:43:00,33.6,-3.2,29.96,North,0,0.0,0.0,20,0.00,,---,0.00,VWS V13.01,2013-11-25 16:43:00,
2013-11-25 11:48:00,33.4,-3.3,29.96,North,0,0.0,0.0,20,0.00,,---,0.00,VWS V13.01,2013-11-25 16:48:00,
2013-11-25 11:53:00,33.4,-3.3,29.96,North,0,0.0,0.0,20,0.00,,---,0.00,VWS V13.01,2013-11-25 16:53:00,
2013-11-25 11:58:00,33.4,-3.3,29.96,North,0,0.0,0.0,20,0.00,,---,0.00,VWS V13.01,2013-11-25 16:58:00,
2013-11-25 12:03:00,33.8,-3.0,29.96,North,0,0.0,0.0,20,0.00,,---,0.00,VWS V13.01,2013-11-25 17:03:00,
2013-11-25 12:08:00,34.0,-2.9,29.96,North,0,0.0,0.0,20,0.00,,---,0.00,VWS V13.01,2013-11-25 17:08:00,
2013-11-25 12:13:00,34.2,-2.7,29.96,North,0,0.0,0.0,20,0.00,,---,0.00,VWS V13.01,2013-11-25 17:13:00,
2013-11-25 12:18:00,34.3,-2.6,29.96,North,0,0.0,0.0,20,0.00,,---,0.00,VWS V13.01,2013-11-25 17:18:00,
2013-11-25 12:23:00,34.3,-2.6,29.96,North,0,0.0,0.0,20,0.00,,---,0.00,VWS V13.01,2013-11-25 17:23:00,
2013-11-25 12:28:00,34.5,-2.4,29.96,North,0,0.0,0.0,20,0.00,,---,0.00,VWS V13.01,2013-11-25 17:28:00,
2013-11-25 12:33:00,34.5,-2.4,29.96,North,0,0.0,0.0,20,0.00,,---,0.00,VWS V13.01,2013-11-25 17:33:00,
2013-11-25 12:38:00,34.7,-5.6,29.96,North,0,0.0,0.0,17,0.00,,---,0.00,VWS V13.01,2013-11-25 17:38:00,
2013-11-25 12:43:00,34.7,-5.6,29.96,North,0,0.0,0.0,17,0.00,,---,0.00,VWS V13.01,2013-11-25 17:43:00,
2013-11-25 12:48:00,34.9,-2.1,29.96,North,0,0.0,0.0,20,0.00,,---,0.00,VWS V13.01,2013-11-25 17:48:00,
2013-11-25 12:53:00,35.1,-2.0,29.96,North,0,0.0,0.0,20,0.00,,---,0.00,VWS V13.01,2013-11-25 17:53:00,
2013-11-25 12:58:00,35.1,-2.0,29.96,North,0,0.0,0.0,20,0.00,,---,0.00,VWS V13.01,2013-11-25 17:58:00,
2013-11-25 13:03:00,35.1,-2.0,29.96,North,0,0.0,0.0,20,0.00,,---,0.00,VWS V13.01,2013-11-25 18:03:00,
2013-11-25 13:08:00,35.1,-2.0,29.96,North,0,0.0,0.0,20,0.00,,---,0.00,VWS V13.01,2013-11-25 18:08:00,
2013-11-25 13:13:00,35.4,-5.1,29.96,North,0,0.0,0.0,17,0.00,,---,0.00,VWS V13.01,2013-11-25 18:13:00,
2013-11-25 13:18:00,35.4,-5.1,29.96,North,0,0.0,0.0,17,0.00,,---,0.00,VWS V13.01,2013-11-25 18:18:00,
2013-11-25 13:23:00,35.4,-5.1,29.96,North,0,0.0,0.0,17,0.00,,---,0.00,VWS V13.01,2013-11-25 18:23:00,
2013-11-25 13:28:00,35.4,-5.1,29.96,North,0,0.0,0.0,17,0.00,,---,0.00,VWS V13.01,2013-11-25 18:28:00,
2013-11-25 13:33:00,35.4,-5.1,29.96,North,0,0.0,0.0,17,0.00,,---,0.00,VWS V13.01,2013-11-25 18:33:00,
2013-11-25 13:38:00,35.4,-5.1,29.96,North,0,0.0,0.0,17,0.00,,---,0.00,VWS V13.01,2013-11-25 18:38:00,
2013-11-25 13:43:00,36.1,-4.5,29.96,North,0,0.0,0.0,17,0.00,,---,0.00,VWS V13.01,2013-11-25 18:43:00,
2013-11-25 13:48:00,36.1,-4.5,29.96,North,0,0.0,0.0,17,0.00,,---,0.00,VWS V13.01,2013-11-25 18:48:00,
2013-11-25 13:53:00,36.5,-1.8,29.96,North,0,0.0,0.0,19,0.00,,---,0.00,VWS V13.01,2013-11-25 18:53:00,
2013-11-25 13:58:00,36.7,-4.0,29.96,North,0,0.0,0.0,17,0.00,,---,0.00,VWS V13.01,2013-11-25 18:58:00,
2013-11-25 14:03:00,36.7,-1.7,29.96,North,0,0.0,0.0,19,0.00,,---,0.00,VWS V13.01,2013-11-25 19:03:00,
2013-11-25 14:08:00,36.7,-1.7,29.96,North,0,0.0,0.0,19,0.00,,---,0.00,VWS V13.01,2013-11-25 19:08:00,
2013-11-25 14:13:00,36.9,-3.9,29.96,North,0,0.0,0.0,17,0.00,,---,0.00,VWS V13.01,2013-11-25 19:13:00,
2013-11-25 14:18:00,36.9,-3.9,29.96,North,0,0.0,0.0,17,0.00,,---,0.00,VWS V13.01,2013-11-25 19:18:00,
2013-11-25 14:23:00,36.9,-3.9,29.96,North,0,0.0,0.0,17,0.00,,---,0.00,VWS V13.01,2013-11-25 19:23:00,
2013-11-25 14:28:00,37.2,-3.6,29.96,North,0,0.0,0.0,17,0.00,,---,0.00,VWS V13.01,2013-11-25 19:28:00,
2013-11-25 14:33:00,37.2,-3.6,29.96,North,0,0.0,0.0,17,0.00,,---,0.00,VWS V13.01,2013-11-25 19:33:00,
2013-11-25 14:38:00,37.0,-3.7,29.96,North,0,0.0,0.0,17,0.00,,---,0.00,VWS V13.01,2013-11-25 19:38:00,
2013-11-25 14:43:00,37.0,-3.7,29.96,North,0,0.0,0.0,17,0.00,,---,0.00,VWS V13.01,2013-11-25 19:43:00,
2013-11-25 14:48:00,37.0,-3.7,29.96,North,0,0.0,0.0,17,0.00,,---,0.00,VWS V13.01,2013-11-25 19:48:00,
2013-11-25 14:53:00,37.0,-3.7,29.96,North,0,0.0,0.0,17,0.00,,---,0.00,VWS V13.01,2013-11-25 19:53:00,
2013-11-25 14:58:00,37.2,-3.6,29.96,North,0,0.0,0.0,17,0.00,,---,0.00,VWS V13.01,2013-11-25 19:58:00,
2013-11-25 15:03:00,37.2,-3.6,29.96,North,0,0.0,0.0,17,0.00,,---,0.00,VWS V13.01,2013-11-25 20:03:00,
2013-11-25 15:08:00,37.8,-4.4,29.96,North,0,0.0,0.0,16,0.00,,---,0.00,VWS V13.01,2013-11-25 20:08:00,
2013-11-25 15:13:00,37.9,-4.2,29.96,North,0,0.0,0.0,16,0.00,,---,0.00,VWS V13.01,2013-11-25 20:13:00,
2013-11-25 15:18:00,37.8,-4.4,29.96,North,0,0.0,0.0,16,0.00,,---,0.00,VWS V13.01,2013-11-25 20:18:00,
2013-11-25 15:23:00,37.8,-4.4,29.96,North,0,0.0,0.0,16,0.00,,---,0.00,VWS V13.01,2013-11-25 20:23:00,
2013-11-25 15:28:00,37.6,-4.5,29.96,North,0,0.0,0.0,16,0.00,,---,0.00,VWS V13.01,2013-11-25 20:28:00,
2013-11-25 15:33:00,37.6,-4.5,29.96,North,0,0.0,0.0,16,0.00,,---,0.00,VWS V13.01,2013-11-25 20:33:00,
2013-11-25 15:38:00,37.6,-4.5,29.96,North,0,0.0,0.0,16,0.00,,---,0.00,VWS V13.01,2013-11-25 20:38:00,
2013-11-25 15:43:00,37.8,-4.4,29.96,North,0,0.0,0.0,16,0.00,,---,0.00,VWS V13.01,2013-11-25 20:43:00,
2013-11-25 15:48:00,37.8,-4.4,29.96,North,0,0.0,0.0,16,0.00,,---,0.00,VWS V13.01,2013-11-25 20:48:00,
2013-11-25 15:53:00,37.8,-4.4,29.96,North,0,0.0,0.0,16,0.00,,---,0.00,VWS V13.01,2013-11-25 20:53:00,
2013-11-25 15:58:00,37.6,-4.5,29.96,North,0,0.0,0.0,16,0.00,,---,0.00,VWS V13.01,2013-11-25 20:58:00,
2013-11-25 16:03:00,37.6,-4.5,29.96,North,0,0.0,0.0,16,0.00,,---,0.00,VWS V13.01,2013-11-25 21:03:00,
2013-11-25 16:08:00,37.6,-4.5,29.96,North,0,0.0,0.0,16,0.00,,---,0.00,VWS V13.01,2013-11-25 21:08:00,
2013-11-25 16:13:00,37.6,-4.5,29.96,North,0,0.0,0.0,16,0.00,,---,0.00,VWS V13.01,2013-11-25 21:13:00,
2013-11-25 16:18:00,37.0,-3.7,29.96,North,0,0.0,0.0,17,0.00,,---,0.00,VWS V13.01,2013-11-25 21:18:00,
2013-11-25 16:23:00,37.0,-3.7,29.96,North,0,0.0,0.0,17,0.00,,---,0.00,VWS V13.01,2013-11-25 21:23:00,
2013-11-25 16:28:00,37.0,-3.7,29.96,North,0,0.0,0.0,17,0.00,,---,0.00,VWS V13.01,2013-11-25 21:28:00,
2013-11-25 16:33:00,37.0,-3.7,29.96,North,0,0.0,0.0,17,0.00,,---,0.00,VWS V13.01,2013-11-25 21:33:00,
2013-11-25 16:38:00,36.9,-3.9,29.96,North,0,0.0,0.0,17,0.00,,---,0.00,VWS V13.01,2013-11-25 21:38:00,
2013-11-25 16:43:00,36.9,-3.9,29.96,North,0,0.0,0.0,17,0.00,,---,0.00,VWS V13.01,2013-11-25 21:43:00,
2013-11-25 16:48:00,36.7,-4.0,29.96,North,0,0.0,0.0,17,0.00,,---,0.00,VWS V13.01,2013-11-25 21:48:00,
2013-11-25 16:53:00,36.5,-4.2,29.96,North,0,0.0,0.0,17,0.00,,---,0.00,VWS V13.01,2013-11-25 21:53:00,
2013-11-25 16:58:00,36.3,-4.3,29.96,North,0,0.0,0.0,17,0.00,,---,0.00,VWS V13.01,2013-11-25 21:58:00,
2013-11-25 17:03:00,36.3,-4.3,29.96,North,0,0.0,0.0,17,0.00,,---,0.00,VWS V13.01,2013-11-25 22:03:00,
2013-11-25 17:08:00,36.3,-4.3,29.96,North,0,0.0,0.0,17,0.00,,---,0.00,VWS V13.01,2013-11-25 22:08:00,
2013-11-25 17:13:00,36.3,-4.3,29.96,North,0,0.0,0.0,17,0.00,,---,0.00,VWS V13.01,2013-11-25 22:13:00,
2013-11-25 17:18:00,36.3,-4.3,29.96,North,0,0.0,0.0,17,0.00,,---,0.00,VWS V13.01,2013-11-25 22:18:00,
2013-11-25 17:23:00,36.1,-4.5,29.96,North,0,0.0,0.0,17,0.00,,---,0.00,VWS V13.01,2013-11-25 22:23:00,
2013-11-25 17:28:00,36.1,-4.5,29.96,North,0,0.0,0.0,17,0.00,,---,0.00,VWS V13.01,2013-11-25 22:28:00,
2013-11-25 17:33:00,36.1,-4.5,29.96,North,0,0.0,0.0,17,0.00,,---,0.00,VWS V13.01,2013-11-25 22:33:00,
2013-11-25 17:38:00,36.1,-4.5,29.96,North,0,0.0,0.0,17,0.00,,---,0.00,VWS V13.01,2013-11-25 22:38:00,
2013-11-25 17:43:00,35.8,-4.8,29.96,North,0,0.0,0.0,17,0.00,,---,0.00,VWS V13.01,2013-11-25 22:43:00,
2013-11-25 17:48:00,35.8,-4.8,29.96,North,0,0.0,0.0,17,0.00,,---,0.00,VWS V13.01,2013-11-25 22:48:00,
2013-11-25 17:53:00,35.6,-4.9,29.96,North,0,0.0,0.0,17,0.00,,---,0.00,VWS V13.01,2013-11-25 22:53:00,
2013-11-25 17:58:00,35.4,-5.1,29.96,North,0,0.0,0.0,17,0.00,,---,0.00,VWS V13.01,2013-11-25 22:58:00,
2013-11-25 18:03:00,35.4,-5.1,29.96,North,0,0.0,0.0,17,0.00,,---,0.00,VWS V13.01,2013-11-25 23:03:00,
2013-11-25 18:08:00,35.2,-5.2,29.96,North,0,0.0,0.0,17,0.00,,---,0.00,VWS V13.01,2013-11-25 23:08:00,
2013-11-25 18:13:00,35.2,-5.2,29.96,North,0,0.0,0.0,17,0.00,,---,0.00,VWS V13.01,2013-11-25 23:13:00,
2013-11-25 18:18:00,35.1,-5.3,29.96,North,0,0.0,0.0,17,0.00,,---,0.00,VWS V13.01,2013-11-25 23:18:00,
2013-11-25 18:23:00,35.1,-5.3,29.96,North,0,0.0,0.0,17,0.00,,---,0.00,VWS V13.01,2013-11-25 23:23:00,
2013-11-25 18:28:00,35.1,-5.3,29.96,North,0,0.0,0.0,17,0.00,,---,0.00,VWS V13.01,2013-11-25 23:28:00,
2013-11-25 18:33:00,35.1,-5.3,29.96,North,0,0.0,0.0,17,0.00,,---,0.00,VWS V13.01,2013-11-25 23:33:00,
2013-11-25 18:38:00,35.1,-5.3,29.96,North,0,0.0,0.0,17,0.00,,---,0.00,VWS V13.01,2013-11-25 23:38:00,
2013-11-25 18:43:00,34.9,-2.1,29.96,North,0,0.0,0.0,20,0.00,,---,0.00,VWS V13.01,2013-11-25 23:43:00,
2013-11-25 18:48:00,34.9,-2.1,29.96,North,0,0.0,0.0,20,0.00,,---,0.00,VWS V13.01,2013-11-25 23:48:00,
2013-11-25 18:53:00,34.7,-2.3,29.96,North,0,0.0,0.0,20,0.00,,---,0.00,VWS V13.01,2013-11-25 23:53:00,
2013-11-25 18:58:00,34.7,-2.3,29.96,North,0,0.0,0.0,20,0.00,,---,0.00,VWS V13.01,2013-11-25 23:58:00,
2013-11-25 19:03:00,34.7,-2.3,29.96,North,0,0.0,0.0,20,0.00,,---,0.00,VWS V13.01,2013-11-26 00:03:00,
2013-11-25 19:08:00,34.5,-2.4,29.96,North,0,0.0,0.0,20,0.00,,---,0.00,VWS V13.01,2013-11-26 00:08:00,
2013-11-25 19:13:00,34.5,-2.4,29.96,North,0,0.0,0.0,20,0.00,,---,0.00,VWS V13.01,2013-11-26 00:13:00,
2013-11-25 19:19:00,34.5,-2.4,29.96,North,0,0.0,0.0,20,0.00,,---,0.00,VWS V13.01,2013-11-26 00:19:00,
2013-11-25 19:24:00,34.5,-2.4,29.96,North,0,0.0,0.0,20,0.00,,---,0.00,VWS V13.01,2013-11-26 00:24:00,
2013-11-25 19:29:00,34.5,-2.4,29.96,North,0,0.0,0.0,20,0.00,,---,0.00,VWS V13.01,2013-11-26 00:29:00,
2013-11-25 19:34:00,34.5,-2.4,29.96,North,0,0.0,0.0,20,0.00,,---,0.00,VWS V13.01,2013-11-26 00:34:00,
2013-11-25 19:39:00,34.5,-2.4,29.96,North,0,0.0,0.0,20,0.00,,---,0.00,VWS V13.01,2013-11-26 00:39:00,
2013-11-25 19:44:00,34.5,-2.4,29.96,North,0,0.0,0.0,20,0.00,,---,0.00,VWS V13.01,2013-11-26 00:44:00,
2013-11-25 19:49:00,34.3,-2.6,29.96,North,0,0.0,0.0,20,0.00,,---,0.00,VWS V13.01,2013-11-26 00:49:00,
2013-11-25 19:54:00,34.5,-2.4,29.96,North,0,0.0,0.0,20,0.00,,---,0.00,VWS V13.01,2013-11-26 00:54:00,
2013-11-25 19:59:00,34.5,-2.4,29.96,North,0,0.0,0.0,20,0.00,,---,0.00,VWS V13.01,2013-11-26 00:59:00,
2013-11-25 20:04:00,34.5,-2.4,29.96,North,0,0.0,0.0,20,0.00,,---,0.00,VWS V13.01,2013-11-26 01:04:00,
2013-11-25 20:09:00,34.5,-2.4,29.96,North,0,0.0,0.0,20,0.00,,---,0.00,VWS V13.01,2013-11-26 01:09:00,
2013-11-25 20:14:00,34.5,-2.4,29.96,North,0,0.0,0.0,20,0.00,,---,0.00,VWS V13.01,2013-11-26 01:14:00,
2013-11-25 20:19:00,34.5,-2.4,29.96,North,0,0.0,0.0,20,0.00,,---,0.00,VWS V13.01,2013-11-26 01:19:00,
2013-11-25 20:24:00,34.5,-2.4,29.96,North,0,0.0,0.0,20,0.00,,---,0.00,VWS V13.01,2013-11-26 01:24:00,
2013-11-25 20:29:00,34.5,-2.4,29.96,North,0,0.0,0.0,20,0.00,,---,0.00,VWS V13.01,2013-11-26 01:29:00,
2013-11-25 20:34:00,34.5,-2.4,29.96,North,0,0.0,0.0,20,0.00,,---,0.00,VWS V13.01,2013-11-26 01:34:00,
2013-11-25 20:39:00,34.5,-2.4,29.96,North,0,0.0,0.0,20,0.00,,---,0.00,VWS V13.01,2013-11-26 01:39:00,
2013-11-25 20:44:00,34.5,-2.4,29.96,North,0,0.0,0.0,20,0.00,,---,0.00,VWS V13.01,2013-11-26 01:44:00,
2013-11-25 20:49:00,34.5,-2.4,29.96,North,0,0.0,0.0,20,0.00,,---,0.00,VWS V13.01,2013-11-26 01:49:00,
2013-11-25 20:54:00,34.5,-2.4,29.96,North,0,0.0,0.0,20,0.00,,---,0.00,VWS V13.01,2013-11-26 01:54:00,
2013-11-25 20:59:00,34.5,-2.4,29.96,North,0,0.0,0.0,20,0.00,,---,0.00,VWS V13.01,2013-11-26 01:59:00,
2013-11-25 21:04:00,34.5,-2.4,29.96,North,0,0.0,0.0,20,0.00,,---,0.00,VWS V13.01,2013-11-26 02:04:00,
2013-11-25 21:09:00,34.5,-2.4,29.96,North,0,0.0,0.0,20,0.00,,---,0.00,VWS V13.01,2013-11-26 02:09:00,
2013-11-25 21:14:00,34.5,-2.4,29.96,North,0,0.0,0.0,20,0.00,,---,0.00,VWS V13.01,2013-11-26 02:14:00,
2013-11-25 21:19:00,34.5,-2.4,29.96,North,0,0.0,0.0,20,0.00,,---,0.00,VWS V13.01,2013-11-26 02:19:00,
2013-11-25 21:24:00,34.5,-2.4,29.96,North,0,0.0,0.0,20,0.00,,---,0.00,VWS V13.01,2013-11-26 02:24:00,
2013-11-25 21:29:00,34.5,-2.4,29.96,North,0,0.0,0.0,20,0.00,,---,0.00,VWS V13.01,2013-11-26 02:29:00,
2013-11-25 21:34:00,34.5,-2.4,29.96,North,0,0.0,0.0,20,0.00,,---,0.00,VWS V13.01,2013-11-26 02:34:00,
2013-11-25 21:39:00,34.5,-2.4,29.96,North,0,0.0,0.0,20,0.00,,---,0.00,VWS V13.01,2013-11-26 02:39:00,
2013-11-25 21:44:00,34.5,-2.4,29.96,North,0,0.0,0.0,20,0.00,,---,0.00,VWS V13.01,2013-11-26 02:44:00,
2013-11-25 21:49:00,34.5,-2.4,29.96,North,0,0.0,0.0,20,0.00,,---,0.00,VWS V13.01,2013-11-26 02:49:00,
2013-11-25 21:54:00,34.5,-2.4,29.96,North,0,0.0,0.0,20,0.00,,---,0.00,VWS V13.01,2013-11-26 02:54:00,
2013-11-25 21:59:00,34.5,-2.4,29.96,North,0,0.0,0.0,20,0.00,,---,0.00,VWS V13.01,2013-11-26 02:59:00,
2013-11-25 22:04:00,34.5,-2.4,29.96,North,0,0.0,0.0,20,0.00,,---,0.00,VWS V13.01,2013-11-26 03:04:00,
2013-11-25 22:09:00,34.5,-2.4,29.96,North,0,0.0,0.0,20,0.00,,---,0.00,VWS V13.01,2013-11-26 03:09:00,
2013-11-25 22:14:00,34.5,-2.4,29.96,North,0,0.0,0.0,20,0.00,,---,0.00,VWS V13.01,2013-11-26 03:14:00,
2013-11-25 22:19:00,34.5,-2.4,29.96,North,0,0.0,0.0,20,0.00,,---,0.00,VWS V13.01,2013-11-26 03:19:00,
2013-11-25 22:24:00,34.5,-2.4,29.96,North,0,0.0,0.0,20,0.00,,---,0.00,VWS V13.01,2013-11-26 03:24:00,
2013-11-25 22:29:00,34.5,-2.4,29.96,North,0,0.0,0.0,20,0.00,,---,0.00,VWS V13.01,2013-11-26 03:29:00,
2013-11-25 22:34:00,34.5,-2.4,29.96,North,0,0.0,0.0,20,0.00,,---,0.00,VWS V13.01,2013-11-26 03:34:00,
2013-11-25 22:39:00,34.5,-2.4,29.96,North,0,0.0,0.0,20,0.00,,---,0.00,VWS V13.01,2013-11-26 03:39:00,
2013-11-25 22:44:00,34.5,-2.4,29.96,North,0,0.0,0.0,20,0.00,,---,0.00,VWS V13.01,2013-11-26 03:44:00,
2013-11-25 22:49:00,34.5,-2.4,29.96,North,0,0.0,0.0,20,0.00,,---,0.00,VWS V13.01,2013-11-26 03:49:00,
2013-11-25 22:54:00,34.5,-2.4,29.96,North,0,0.0,0.0,20,0.00,,---,0.00,VWS V13.01,2013-11-26 03:54:00,
2013-11-25 22:59:00,34.7,-2.3,29.96,North,0,0.0,0.0,20,0.00,,---,0.00,VWS V13.01,2013-11-26 03:59:00,
2013-11-25 23:04:00,34.7,-2.3,29.96,North,0,0.0,0.0,20,0.00,,---,0.00,VWS V13.01,2013-11-26 04:04:00,
2013-11-25 23:09:00,34.9,-2.1,29.96,North,0,0.0,0.0,20,0.00,,---,0.00,VWS V13.01,2013-11-26 04:09:00,
2013-11-25 23:14:00,34.9,-2.1,29.96,North,0,0.0,0.0,20,0.00,,---,0.00,VWS V13.01,2013-11-26 04:14:00,
2013-11-25 23:19:00,34.9,-2.1,29.96,North,0,0.0,0.0,20,0.00,,---,0.00,VWS V13.01,2013-11-26 04:19:00,
2013-11-25 23:24:00,34.9,-2.1,29.96,North,0,0.0,0.0,20,0.00,,---,0.00,VWS V13.01,2013-11-26 04:24:00,
2013-11-25 23:29:00,34.9,-2.1,29.96,North,0,0.0,0.0,20,0.00,,---,0.00,VWS V13.01,2013-11-26 04:29:00,
2013-11-25 23:34:00,34.9,-2.1,29.96,North,0,0.0,0.0,20,0.00,,---,0.00,VWS V13.01,2013-11-26 04:34:00,
2013-11-25 23:39:00,34.9,-2.1,29.96,North,0,0.0,0.0,20,0.00,,---,0.00,VWS V13.01,2013-11-26 04:39:00,
2013-11-25 23:44:00,34.9,-2.1,29.96,North,0,0.0,0.0,20,0.00,,---,0.00,VWS V13.01,2013-11-26 04:44:00,
2013-11-25 23:49:00,34.9,-2.1,29.96,North,0,0.0,0.0,20,0.00,,---,0.00,VWS V13.01,2013-11-26 04:49:00,
2013-11-25 23:54:00,34.9,-2.1,29.96,North,0,0.0,0.0,20,0.00,,---,0.00,VWS V13.01,2013-11-26 04:54:00,
2013-11-25 23:59:00,34.9,-2.1,29.96,North,0,0.0,0.0,20,0.00,,---,0.00,VWS V13.01,2013-11-26 04:59:00,